EDT,Max TemperatureF,Mean TemperatureF,Min TemperatureF,Max Dew PointF,MeanDew PointF,Min DewpointF,Max Humidity, Mean Humidity, Min Humidity, Max Sea Level PressureIn, Mean Sea Level PressureIn, Min Sea Level PressureIn, Max VisibilityMiles, Mean VisibilityMiles, Min VisibilityMiles, Max Wind SpeedMPH, Mean Wind SpeedMPH, Max Gust SpeedMPH,PrecipitationIn, CloudCover, Events, WindDirDegrees
2012-10-1,69,61,53,54,51,50,93,76,58,29.93,29.82,29.74,10,10,10,20,12,27,T,8,Rain,245
2012-10-2,67,60,52,61,56,50,93,83,73,29.99,29.94,29.90,10,10,10,10,4,12,T,8,Rain,80
2012-10-3,68,64,59,65,62,58,100,94,87,30.11,30.02,29.96,10,6,2,8,2,10,0.17,8,Fog-Rain,78
2012-10-4,74,67,59,63,59,53,100,77,53,30.15,30.09,30.03,10,9,4,9,2,10,T,6,Fog,236
2012-10-5,76,65,53,59,56,50,90,74,57,30.02,29.95,29.86,10,10,10,15,5,20,0.02,6,,226
2012-10-6,61,54,46,59,48,33,100,71,42,30.01,29.85,29.76,10,8,3,26,12,32,0.49,7,Rain,281
2012-10-7,55,50,45,45,40,35,93,72,51,30.09,30.05,29.99,10,10,9,16,6,22,0.21,8,Rain,247
2012-10-8,57,48,39,43,38,32,89,66,43,30.25,30.20,30.09,10,10,10,15,5,18,0.01,7,Rain,170
2012-10-9,62,48,34,45,40,32,96,75,53,30.24,30.15,30.01,10,10,10,12,5,15,0.00,4,,91
2012-10-10,61,53,44,49,43,34,92,71,49,30.00,29.88,29.76,10,10,10,26,11,33,0.01,5,Rain,210
2012-10-11,55,48,41,37,34,30,76,59,41,30.17,30.06,29.95,10,10,10,24,13,30,0.05,6,Rain,238
2012-10-12,55,44,32,45,35,23,93,67,41,30.43,30.20,30.01,10,8,2,24,10,28,0.37,7,Rain,289
2012-10-13,53,41,29,40,28,23,85,59,32,30.47,30.34,30.05,10,10,9,13,5,17,0.22,5,Rain,132
2012-10-14,74,60,45,57,52,43,96,76,55,30.02,29.88,29.69,10,9,2,25,10,35,0.56,7,Rain,160
2012-10-15,68,57,46,55,49,37,83,68,52,29.75,29.63,29.55,10,10,9,26,15,32,0.01,7,Rain,231
2012-10-16,52,46,39,40,37,35,92,73,54,29.92,29.84,29.76,10,10,10,22,8,28,0.02,7,Rain,289
2012-10-17,67,52,36,45,39,34,92,63,34,29.96,29.90,29.83,10,10,10,10,5,13,0.00,6,,109
2012-10-18,69,57,44,49,44,39,83,63,42,29.88,29.85,29.81,10,10,10,28,13,36,T,5,,116
2012-10-19,66,59,51,59,54,50,100,89,78,29.91,29.74,29.60,10,7,0,21,5,28,0.84,7,Fog-Rain,95
2012-10-20,60,54,47,55,45,40,100,74,47,29.75,29.68,29.59,10,9,4,17,7,23,0.00,6,Fog,218
2012-10-21,63,56,49,45,42,40,80,63,46,30.03,29.91,29.77,10,10,10,26,15,35,T,6,Rain,257
2012-10-22,65,55,45,46,44,41,93,68,43,30.09,30.07,30.02,10,10,7,18,8,22,0.00,3,,265
2012-10-23,54,49,44,53,49,40,100,91,82,30.12,30.08,30.05,10,7,1,7,3,9,0.31,7,Rain,62
2012-10-24,54,53,51,52,49,47,96,87,77,30.14,30.11,30.07,10,9,3,9,5,13,0.04,8,Fog-Rain,78
2012-10-25,76,64,51,60,53,48,89,72,54,30.15,30.11,30.07,10,10,6,15,8,17,0.01,3,Rain,99
2012-10-26,74,64,54,57,54,51,93,75,57,30.11,30.08,30.03,10,9,6,16,7,20,0.00,5,,133
2012-10-27,64,58,51,54,51,48,89,78,67,30.12,30.02,29.94,10,10,8,14,4,20,T,8,Rain,279
2012-10-28,51,49,46,48,45,44,100,93,86,30.02,29.96,29.84,10,8,1,12,6,14,0.03,8,Rain,306
2012-10-29,60,53,46,57,48,44,93,85,77,29.84,29.44,29.02,10,8,2,30,13,40,0.53,8,Rain,350
2012-10-30,62,54,45,58,50,44,93,83,72,29.43,29.24,29.05,10,9,2,28,12,39,0.06,7,Rain,113
2012-10-31,48,46,43,42,39,36,92,79,66,29.48,29.45,29.41,10,10,10,16,5,18,0.03,8,Rain,173